0 ORBCOMM-X 1 21576U 91050C 25185.91714355 .00000233 00000-0 81997-4 0 9998 2 21576 98.3427 252.1548 0004698 123.3639 236.8002 14.43273260784672 0 ORBCOMM FM 1 1 23545U 95017A 25186.52524038 .00004157 00000-0 43657-3 0 9997 2 23545 69.9639 28.4014 0005417 273.4634 86.5901 14.90220615615593 0 ORBCOMM FM 2 1 23546U 95017B 25186.05467212 .00004307 00000-0 44212-3 0 9991 2 23546 69.9652 48.9088 0006796 275.7590 84.2790 14.91105677615125 0 ORBCOMM FM 8 1 25112U 97084A 25185.66208637 .00000847 00000-0 27665-3 0 9996 2 25112 45.0146 283.9762 0005914 316.6892 43.3494 14.45849951443901 0 ORBCOMM FM 10 1 25113U 97084B 25185.71486506 .00000851 00000-0 27896-3 0 9997 2 25113 45.0158 286.1336 0005569 280.6494 79.3730 14.45638610619052 0 ORBCOMM FM 11 1 25114U 97084C 25185.65333066 .00000874 00000-0 28678-3 0 9997 2 25114 45.0144 287.0934 0006276 284.3079 75.7075 14.45387715444008 0 ORBCOMM FM 12 1 25115U 97084D 25185.75379389 .00000796 00000-0 26488-3 0 9997 2 25115 45.0150 286.3597 0005447 278.8632 81.1602 14.45408184443814 0 ORBCOMM FM 9 1 25116U 97084E 25186.47885243 .00000788 00000-0 26321-3 0 9996 2 25116 45.0154 283.8325 0006958 277.5166 82.4894 14.45284779444153 0 ORBCOMM FM 5 1 25117U 97084F 25185.62750144 .00000863 00000-0 28047-3 0 9995 2 25117 45.0154 284.3156 0003409 265.1554 94.8908 14.45984250443135 0 ORBCOMM FM 6 1 25118U 97084G 25186.24524354 .00000949 00000-0 30335-3 0 9995 2 25118 45.0143 281.0675 0002682 253.8334 135.5760 14.46117499444163 0 ORBCOMM FM 7 1 25119U 97084H 25186.32211045 .00000911 00000-0 29282-3 0 9993 2 25119 45.0141 281.4667 0004257 270.6548 89.3816 14.46116135444165 0 ORBCOMM FM 3 1 25158U 98007B 25185.90662849 .00000605 00000-0 25802-3 0 9991 2 25158 107.9656 172.0002 0045786 219.8958 139.8813 14.34536427426588 0 ORBCOMM FM 4 1 25159U 98007C 25185.88778291 .00000574 00000-0 24671-3 0 9996 2 25159 107.9645 175.1954 0041525 217.5376 142.2862 14.34783325426878 0 ORBCOMM FM 17 1 25413U 98046A 25185.66265913 .00000486 00000-0 21762-3 0 9990 2 25413 44.9927 175.1286 0005108 295.6332 64.3987 14.35116578405856 0 ORBCOMM FM 18 1 25414U 98046B 25185.78092784 .00000826 00000-0 31345-3 0 9994 2 25414 44.9932 91.4970 0005921 7.2499 352.8434 14.38590168406786 0 ORBCOMM FM 19 1 25415U 98046C 25185.88552369 .00000847 00000-0 32153-3 0 9997 2 25415 44.9944 93.0273 0004745 1.5472 84.1940 14.38398640406750 0 ORBCOMM FM 20 1 25416U 98046D 25186.12172133 .00000621 00000-0 25382-3 0 9999 2 25416 44.9944 96.3348 0002077 356.8906 3.1928 14.37236221406880 0 ORBCOMM FM 16 1 25417U 98046E 25186.51299206 .00000890 00000-0 33171-3 0 9997 2 25417 44.9941 85.8119 0005598 24.1742 335.9369 14.38949081407119 0 ORBCOMM FM 15 1 25418U 98046F 25186.14644168 .00000819 00000-0 31110-3 0 9990 2 25418 44.9971 92.7511 0005260 20.5043 339.6016 14.38590442407007 0 ORBCOMM FM 14 1 25419U 98046G 25185.81257666 .00000768 00000-0 29265-3 0 9998 2 25419 44.9959 92.5218 0004197 13.0294 347.0662 14.38952553406755 0 ORBCOMM FM 13 1 25420U 98046H 25186.15049803 .00000753 00000-0 29485-3 0 9998 2 25420 44.9975 99.0689 0006366 3.0501 357.0385 14.37701502406959 0 ORBCOMM FM 21 1 25475U 98053A 25186.43890779 .00000497 00000-0 21195-3 0 9998 2 25475 45.0067 183.0582 0003720 296.4365 63.6101 14.37374382400206 0 ORBCOMM FM 22 1 25476U 98053B 25186.11539121 .00000571 00000-0 23173-3 0 9996 2 25476 45.0058 179.2978 0005519 303.1461 56.8857 14.38418459400212 0 ORBCOMM FM 23 1 25477U 98053C 25185.74236775 .00000506 00000-0 21408-3 0 9991 2 25477 45.0065 188.4557 0004759 294.6779 65.3573 14.37558035399926 0 ORBCOMM FM 24 1 25478U 98053D 25186.02084907 .00000569 00000-0 23251-3 0 9999 2 25478 45.0063 184.5370 0004494 300.1173 59.9229 14.38128542400299 0 ORBCOMM FM 25 1 25479U 98053E 25186.13146948 .00000629 00000-0 25204-3 0 9993 2 25479 45.0051 182.2851 0006414 316.6391 43.3952 14.38101100400329 0 ORBCOMM FM 26 1 25480U 98053F 25186.15471453 .00000492 00000-0 21132-3 0 9993 2 25480 45.0050 178.7623 0007547 335.3507 24.6979 14.37159110400337 0 ORBCOMM FM 27 1 25481U 98053G 25186.18826765 .00000645 00000-0 25721-3 0 9995 2 25481 45.0037 182.2125 0003073 294.9347 65.1182 14.38132042400301 0 ORBCOMM FM 28 1 25482U 98053H 25186.15412731 .00000750 00000-0 29061-3 0 9995 2 25482 45.0051 119.8485 0005619 11.1960 348.9012 14.38319270401115 0 ORBCOMM FM 30 1 25980U 99065A 25186.49022594 .00000596 00000-0 24519-3 0 9994 2 25980 45.0328 3.0784 0006904 105.5638 254.5973 14.37328118337610 0 ORBCOMM FM 31 1 25981U 99065B 25185.90819617 .00000592 00000-0 24429-3 0 9996 2 25981 45.0244 359.3185 0004501 129.0979 231.0270 14.37265947337520 0 ORBCOMM FM 32 1 25982U 99065C 25185.96648601 .00000584 00000-0 24606-3 0 9994 2 25982 45.0170 15.7404 0006722 119.5800 240.5718 14.36310029337286 0 ORBCOMM FM 33 1 25983U 99065D 25186.54689614 .00000514 00000-0 20661-3 0 9999 2 25983 45.0286 271.6690 0009005 168.6499 191.4555 14.40027726338784 0 ORBCOMM FM 36 1 25984U 99065E 25185.70228946 .00000780 00000-0 30143-3 0 9995 2 25984 45.0405 7.8887 0002877 46.3639 313.7448 14.38153554336945 0 ORBCOMM FM 35 1 25985U 99065F 25185.90310225 .00000630 00000-0 25746-3 0 9997 2 25985 45.0409 12.1110 0004295 126.0223 234.1023 14.37122218337330 0 ORBCOMM FM 34 1 25986U 99065G 25185.93834616 .00000540 00000-0 22760-3 0 9999 2 25986 45.0404 12.4091 0004192 81.0218 279.1105 14.37143158337490 0 ORBCOMM FM 38 1 33060U 08031A 25186.55908968 .00000968 00000-0 14980-3 0 9994 2 33060 48.4392 227.6907 0004163 122.5383 237.5935 14.81371633917463 0 ORBCOMM FM 41 1 33061U 08031B 25186.52639362 .00000887 00000-0 14088-3 0 9990 2 33061 48.4429 235.6885 0003335 104.2806 36.5220 14.80955532917397 0 ORBCOMM FM 29 1 33062U 08031C 25186.22117551 .00001003 00000-0 15530-3 0 9993 2 33062 48.4386 244.9299 0005014 102.2779 300.5772 14.81059570917210 0 ORBCOMM FM 39 1 33063U 08031D 25185.92400504 .00000867 00000-0 14258-3 0 9996 2 33063 48.4409 270.8131 0006029 69.5577 290.5985 14.79607054916427 0 ORBCOMM FM 37 1 33064U 08031E 25186.52387245 .00000868 00000-0 14196-3 0 9992 2 33064 48.4396 256.4586 0004506 94.0712 38.0031 14.79814983917080 0 ORBCOMM FM 40 1 33065U 08031F 25186.18658601 .00001175 00000-0 17324-3 0 9990 2 33065 48.4410 241.7965 0005551 106.9061 282.9734 14.82083908917277 0 VESSELSAT 1 1 37840U 11058C 25186.55245108 .00000332 00000-0 36791-4 0 9997 2 37840 19.9634 342.7609 0013721 28.8615 331.2547 14.11356310709131 0 ORBCOMM FM 109 1 40086U 14040A 25185.79438488 .00000271 00000-0 94653-4 0 9990 2 40086 47.0040 293.1372 0000761 55.0654 305.0303 14.58194152583630 0 ORBCOMM FM 107 1 40087U 14040B 25185.34256203 .00000406 00000-0 12346-3 0 9993 2 40087 47.0057 296.2298 0001224 312.8254 47.2529 14.58266839583643 0 ORBCOMM FM 106 1 40088U 14040C 25185.90980074 .00000630 00000-0 13677-3 0 9993 2 40088 47.0602 114.2319 0016299 150.3808 209.8009 14.69471756586089 0 ORBCOMM FM 111 1 40089U 14040D 25186.50207010 .00001791 00000-0 22374-3 0 9996 2 40089 47.0037 319.0850 0031215 279.2252 80.5115 14.86370846592958 0 ORBCOMM FM 104 1 40090U 14040E 25186.44716309 .00000336 00000-0 11223-3 0 9992 2 40090 47.0063 324.8395 0016920 286.5896 73.3130 14.56664910583387 0 ORBCOMM FM 103 1 40091U 14040F 25186.48073025 .00000311 00000-0 10321-3 0 9999 2 40091 47.0061 291.4105 0001640 332.2496 27.8302 14.58190071583831 0 ORBCOMM FM 114 1 41179U 15081A 25185.74812030 .00000247 00000-0 89526-4 0 9990 2 41179 47.0010 203.9078 0001195 43.9688 316.1293 14.58228532507039 0 ORBCOMM FM 119 1 41180U 15081B 25185.80545508 .00000461 00000-0 13543-3 0 9995 2 41180 47.0003 112.9519 0000458 159.8324 200.2580 14.58163929508296 0 ORBCOMM FM 105 1 41181U 15081C 25185.85081071 .00000137 00000-0 83438-4 0 9992 2 41181 47.0010 119.4006 0001657 11.8858 348.2061 14.45230856503303 0 ORBCOMM FM 110 1 41182U 15081D 25186.14638275 .00000498 00000-0 14408-3 0 9990 2 41182 47.0000 201.5135 0002435 272.1378 87.9228 14.57960628507141 0 ORBCOMM FM 118 1 41183U 15081E 25185.77189548 .00000219 00000-0 83529-4 0 9995 2 41183 47.0022 203.5725 0003824 245.4966 114.5521 14.58208438507016 0 ORBCOMM FM 112 1 41184U 15081F 25185.84931267 .00000491 00000-0 14186-3 0 9991 2 41184 46.9988 111.8827 0001023 33.2709 326.8241 14.58243106508241 0 ORBCOMM FM 113 1 41185U 15081G 25186.09990440 .00000458 00000-0 13466-3 0 9991 2 41185 47.0006 111.0233 0000662 51.9258 308.1687 14.58247982508335 0 ORBCOMM FM 115 1 41186U 15081H 25186.49521607 .00000455 00000-0 12322-3 0 9998 2 41186 46.9997 312.4828 0000967 199.5655 160.5195 14.62525674510450 0 ORBCOMM FM 108 1 41187U 15081J 25186.53365609 .00000571 00000-0 15919-3 0 9996 2 41187 47.0063 20.3282 0002155 32.0717 328.0299 14.58172429509553 0 ORBCOMM FM 117 1 41188U 15081K 25185.88324427 .00000537 00000-0 15195-3 0 9995 2 41188 47.0023 22.1563 0002725 41.6616 318.4477 14.58175874509423 0 ORBCOMM FM 116 1 41189U 15081L 25186.21407505 .00000559 00000-0 15642-3 0 9994 2 41189 47.0022 110.4373 0002416 256.6452 103.4164 14.58235455508354